Regional Weather Roundup
Issued by NWS

Home | Current Version | Previous Version | Graphics & Text | Print | Product List | Glossary On
Versions: 1 2 3 4 5 6 7 8 9 10 11 12 13 14 15 16 17 18 19 20 21 22 23 24 25 26 27 28 29 30 31 32 33 34 35 36 37 38 39 40 41 42 43 44 45 46 47 48 49 50
157
ASUS43 KMKX 081859
RWRWI

WISCONSIN REGIONAL WEATHER ROUNDUP
NATIONAL WEATHER SERVICE MILWAUKEE/SULLIVAN WI
100 PM CST MON FEB 08 2016

NOTE: "FAIR" INDICATES FEW OR NO CLOUDS BELOW 12,000 FEET WITH NO
SIGNIFICANT WEATHER AND/OR OBSTRUCTIONS TO VISIBILITY.

WIZ001-002-006>008-014>016-023>028-082000-
NORTHWEST WISCONSIN

CITY           SKY/WX    TMP DP  RH WIND       PRES   REMARKS
SUPERIOR ARPT  LGT SNOW  13   5  69 NW16      29.92S WCI  -3
ASHLAND        LGT SNOW  17  10  74 NW9       29.84S WCI   6
HAYWARD        LGT SNOW  14   6  70 N9        29.83S WCI   2
SIREN          CLOUDY    14   4  65 NW14      29.90S WCI  -1
CUMBERLAND     FLURRIES  12   3  67 NW17G23   29.84F WCI  -5
RICE LAKE      FLURRIES  13   5  69 NW10      29.87S WCI   0
CHETEK         LGT SNOW  13   6  71 NW6       29.85S WCI   4
LADYSMITH      FLURRIES  16   9  74 NW17      29.82R WCI   0
EAU CLAIRE     NOT AVBL
MENOMONIE      LGT SNOW  16   6  64 NW16G22   29.87F WCI   1
NEW RICHMOND   CLOUDY    14   3  63 NW17G26   29.90F WCI  -3
OSCEOLA        CLOUDY    15   4  60 N14       29.94F WCI   0
$$

WIZ003>005-009-010-017-018-082000-
NORTH CENTRAL WISCONSIN

CITY           SKY/WX    TMP DP  RH WIND       PRES   REMARKS
MANITOWISH WTR LGT SNOW  17  12  83 NW12G18   29.71S WCI   4
ARBOR VITAE    FLURRIES  22  15  74 NW16G23   29.69S WCI   8
WOODRUFF       FLURRIES  22  15  74 NW16G23   29.69S WCI   8
RHINELANDER    CLOUDY    22  14  71 NW12G17   29.67S WCI  10
EAGLE RIVER    FLURRIES  21  13  70 NW16      29.66F WCI   7
LAND O LAKES   LGT SNOW  20  13  75 NW13G18   29.68S WCI   8
PHILLIPS       LGT SNOW  17  12  81 NW7       29.73F WCI   8
TOMAHAWK       CLOUDY    22  13  71 NW13G20   29.70S WCI   9
MEDFORD        CLOUDY    19  14  80 NW14      29.71S WCI   5
MERRILL        CLOUDY    23  16  75 N13       29.70S WCI  11
$$

WIZ029-030-035-036-043>047-082000-
CENTRAL WISCONSIN

CITY           SKY/WX    TMP DP  RH WIND       PRES   REMARKS
WAUSAU         CLOUDY    24  17  74 NW14      29.68R WCI  12
MOSINEE        CLOUDY    23  19  86 NW20      29.69S WCI   8
MARSHFIELD     CLOUDY    19  11  70 NW20      29.71S WCI   3
STEVENS POINT  CLOUDY    26  17  68 NW7G18    29.68S WCI  18
WAUPACA        CLOUDY    32  22  65 NW14      29.66S WCI  22
WAUTOMA        NOT AVBL
WISC RAPIDS    CLOUDY    21  12  68 N15G23    29.73R WCI   8
CAMP DOUGLAS   NOT AVBL
$$

WIZ011>013-019>022-031-037>040-048>050-082000-
NORTHEAST WISCONSIN

CITY           SKY/WX    TMP DP  RH WIND       PRES   REMARKS
ANTIGO         CLOUDY    22  16  78 N15       29.65S WCI   9
SHAWANO        CLOUDY    32  22  65 NW8       29.65S WCI  25
OCONTO         CLOUDY    29  29  99 NW10G16   29.64S WCI  20
STURGEON BAY   CLOUDY    30  25  80 N17G23    29.64S WCI  18
GREEN BAY      LGT SNOW  31  28  89 N10       29.63S FOG     WCI  22
MANITOWOC      NOT AVBL
APPLETON       FLURRIES  28  21  74 W12       29.62S WCI  18
CLINTONVILLE   CLOUDY    32  21  64 NW12      29.65S WCI  23
OSHKOSH        FLURRIES  27  20  75 W14       29.64F WCI  16
$$

WIZ032>034-041-042-053>061-082000-
SOUTHWEST WISCONSIN

CITY           SKY/WX    TMP DP  RH WIND       PRES   REMARKS
LA CROSSE      CLOUDY    19   9  65 NW18      29.84R WCI   4
SPARTA         CLOUDY    20  12  72 NW16G22   29.80S WCI   5
VIROQUA        CLOUDY    18  11  73 NW14      29.75S WCI   5
BOSCOBEL       CLOUDY    22  11  62 NW14G20   29.79S WCI   9
PRAIRIE DU CHI CLOUDY    21  10  61 NW18      29.81S WCI   6
PLATTEVILLE    CLOUDY    22  15  76 NW15G24   29.75R WCI   8
$$

WIZ056-057-062-063-064-067-068-082000-
SOUTH CENTRAL WISCONSIN

CITY           SKY/WX    TMP DP  RH WIND       PRES   REMARKS
REEDSBURG      CLOUDY    21  14  75 NW16G22   29.73R WCI   7
BARABOO/DELLS  CLOUDY    22  14  71 NW10      29.71S WCI  11
LONE ROCK      NOT AVBL
MINERAL POINT  CLOUDY    23  16  74 NW16      29.72S WCI  10
MADISON        CLOUDY    23  16  74 NW13      29.69F WCI  11
MIDDLETON      CLOUDY    25  17  72 NW12      29.70S WCI  14
WATERTOWN      FLURRIES  25  21  85 NW13      29.67S WCI  13
MONROE         CLOUDY    25  18  74 NW8G18    29.69S WCI  16
JANESVILLE     CLOUDY    27  18  69 NW13      29.69S WCI  16
$$

WIZ051-052-058>065-066-070>072-082000-
SOUTHEAST WISCONSIN

CITY           SKY/WX    TMP DP  RH WIND       PRES   REMARKS
MILWAUKEE      CLOUDY    27  21  78 NW12      29.64S WCI  17
WAUKESHA       CLOUDY    21  18  86 W17       29.66S WCI   7
MILWAUKEE/TIMM FLURRIES  27  18  69 W14       29.65F WCI  15
RACINE         CLOUDY    27  21  78 NW13      29.65F WCI  16
BURLINGTON     CLOUDY    25  19  76 NW14      29.66F WCI  13
KENOSHA        CLOUDY    28  21  75 W14       29.64F WCI  17
FOND DU LAC    LGT SNOW  26  20  77 W9        29.65F VSB 1   WCI  17
SHEBOYGAN      LGT SNOW  27  21  78 NW13      29.63S VSB 1   WCI  16
WEST BEND      CLOUDY    27  19  74 W15       29.64S WCI  15
JUNEAU         CLOUDY    24  18  78 NW9       29.68S WCI  14
$$

LSZ147-162-082000-
LAKE SUPERIOR

STATION/POSITION TIME  TEMP    WIND        PRES    WAVE
                       AIR SEA DIR/SP/G            HT/PER
                 (UTC) (F)     (DEG/KT/KT) (MB)    (FT/S)
DEVILS ISLAND    1800   15     320/ 16/ 20 1012.1R
PORT WING        1800   16     320/ 15/ 20 1011.9S
SAXON HARBOR     1800   19                 1009.8S
$$

LMZ867-665-643>646-082000-
LAKE MICHIGAN

STATION/POSITION TIME  TEMP    WIND        PRES    WAVE
                       AIR SEA DIR/SP/G            HT/PER
                 (UTC) (F)     (DEG/KT/KT) (MB)    (FT/S)
CHAMBERS ISLAND  1800   31     340/ 14/ 17 1003.7F
NORTHPORT PIER   1800   30     340/ 14/ 20 1003.7S
ALGOMA LAKESHORE 1711          340/  8/  9   N/A
KEWAUNEE LAKESHO 1800   33     300/  8/ 11 1002.2F
SHEBOYGAN LAKESH 1800   28     280/ 15/ 19 1004.3F
PORT WASHINGTON  1800   27     300/ 11/ 18 1004.7S
MILWAUKEE LAKESH 1810   27     300/ 13/ 16   N/A
KENOSHA   LAKESH 1800   29     290/ 10/ 13 1004.4S
$$

TC  - TEMPERATURE IN CELSIUS
VSB - VISIBILITY IN STATUTE MILES
WCI - WIND CHILL INDEX
HX  - HEAT INDEX





USA.gov is the U.S. government's official web portal to all federal, state and local government web resources and services.